When you browse on this site, cookies collect data to enhance your experience and personalize the content and advertising you see.
Visit our Privacy Policy to learn more. By continuing to use the site, you agree to this use of cookies and data.
  • en Suisse
  • Liste des pays
  • À 7 jours
  • Température de l'eau
  • Carte satellitaire
  • Carte météo
  • Widgets météo
  • user-avatar
    Se connecter

    Météo par heure à Quito

    Ce jour, 27 Juin, Jeudi

    Heure Température Précipitation Vent Pression Humidité
    00:00 +12°C° 0 mm 0 m/s 622 mmHg 40%
    01:00 +11°C° 0 mm 0 m/s 622 mmHg 41%
    02:00 +11°C° 0 mm 0 m/s 622 mmHg 44%
    03:00 +10°C° 0 mm 0 m/s 622 mmHg 47%
    04:00 +9°C° 0 mm 0 m/s 621 mmHg 49%
    05:00 +10°C° 0 mm 0 m/s 622 mmHg 50%
    06:00 +10°C° 0 mm 0 m/s 623 mmHg 50%
    07:00 +11°C° 0 mm 0 m/s 623 mmHg 50%
    08:00 +15°C° 0 mm 1 m/s 624 mmHg 42%
    09:00 +19°C° 0 mm 2 m/s 625 mmHg 34%
    10:00 +24°C° 0 mm 3 m/s 626 mmHg 26%
    11:00 +25°C° 0 mm 3 m/s 626 mmHg 24%
    12:00 +26°C° 0 mm 3 m/s 626 mmHg 22%
    13:00 +27°C° 0 mm 2 m/s 625 mmHg 20%
    14:00 +27°C° 0 mm 2 m/s 625 mmHg 20%
    15:00 +27°C° 0 mm 2 m/s 624 mmHg 20%
    16:00 +27°C° 0 mm 2 m/s 624 mmHg 20%
    17:00 +24°C° 0 mm 2 m/s 623 mmHg 25%
    18:00 +20°C° 0 mm 2 m/s 623 mmHg 30%
    19:00 +18°C° 0 mm 1 m/s 622 mmHg 35%
    20:00 +16°C° 0 mm 1 m/s 622 mmHg 36%
    21:00 +15°C° 0 mm 1 m/s 623 mmHg 37%
    22:00 +15°C° 0 mm 1 m/s 623 mmHg 37%
    23:00 +14°C° 0 mm 1 m/s 623 mmHg 38%

    Demain, 28 Juin, Vendredi

    Heure Température Précipitation Vent Pression Humidité
    00:00 +13°C° 0 mm 0 m/s 622 mmHg 39%
    01:00 +12°C° 0 mm 0 m/s 622 mmHg 41%
    02:00 +12°C° 0 mm 0 m/s 622 mmHg 43%
    03:00 +11°C° 0 mm 0 m/s 622 mmHg 46%
    04:00 +10°C° 0 mm 0 m/s 621 mmHg 48%
    05:00 +12°C° 0 mm 1 m/s 622 mmHg 48%
    06:00 +12°C° 0 mm 1 m/s 623 mmHg 47%
    07:00 +13°C° 0 mm 1 m/s 623 mmHg 47%
    08:00 +16°C° 0 mm 1 m/s 624 mmHg 39%
    09:00 +20°C° 0 mm 2 m/s 625 mmHg 32%
    10:00 +25°C° 0 mm 3 m/s 626 mmHg 25%
    11:00 +26°C° 0 mm 3 m/s 626 mmHg 23%
    12:00 +27°C° 0 mm 3 m/s 625 mmHg 20%
    13:00 +28°C° 0 mm 2 m/s 625 mmHg 18%
    14:00 +28°C° 0 mm 2 m/s 625 mmHg 18%
    15:00 +27°C° 0 mm 2 m/s 624 mmHg 18%
    16:00 +27°C° 0 mm 2 m/s 623 mmHg 18%
    17:00 +24°C° 0 mm 2 m/s 623 mmHg 22%
    18:00 +20°C° 0 mm 2 m/s 623 mmHg 26%
    19:00 +18°C° 0 mm 1 m/s 622 mmHg 30%
    20:00 +18°C° 0 mm 1 m/s 622 mmHg 31%
    21:00 +18°C° 0 mm 1 m/s 623 mmHg 31%
    22:00 +16°C° 0 mm 1 m/s 623 mmHg 31%
    23:00 +15°C° 0 mm 1 m/s 623 mmHg 34%

    Après-demain, 29 Juin, Samedi

    Heure Température Précipitation Vent Pression Humidité
    00:00 +14°C° 0 mm 1 m/s 622 mmHg 37%
    01:00 +14°C° 0 mm 1 m/s 622 mmHg 39%
    02:00 +13°C° 0 mm 1 m/s 622 mmHg 41%
    03:00 +13°C° 0 mm 1 m/s 622 mmHg 43%
    04:00 +12°C° 0 mm 1 m/s 622 mmHg 45%
    05:00 +12°C° 0 mm 1 m/s 622 mmHg 46%
    06:00 +12°C° 0 mm 1 m/s 623 mmHg 47%
    07:00 +12°C° 0 mm 1 m/s 623 mmHg 48%
    08:00 +16°C° 0 mm 2 m/s 624 mmHg 40%
    09:00 +19°C° 0 mm 3 m/s 625 mmHg 33%
    10:00 +24°C° 0 mm 3 m/s 626 mmHg 25%
    11:00 +25°C° 0 mm 3 m/s 626 mmHg 23%
    12:00 +27°C° 0 mm 3 m/s 626 mmHg 21%
    13:00 +28°C° 0 mm 2 m/s 625 mmHg 19%
    14:00 +28°C° 0 mm 2 m/s 625 mmHg 19%
    15:00 +27°C° 0 mm 2 m/s 624 mmHg 19%
    16:00 +27°C° 0 mm 2 m/s 624 mmHg 18%
    17:00 +24°C° 0 mm 2 m/s 623 mmHg 23%
    18:00 +21°C° 0 mm 1 m/s 623 mmHg 27%
    19:00 +18°C° 0 mm 1 m/s 622 mmHg 31%
    20:00 +18°C° 0 mm 1 m/s 623 mmHg 31%
    21:00 +18°C° 0 mm 1 m/s 623 mmHg 31%
    22:00 +16°C° 0 mm 1 m/s 624 mmHg 31%
    23:00 +15°C° 0 mm 1 m/s 623 mmHg 33%

    30 Juin, Dimanche

    Heure Température Précipitation Vent Pression Humidité
    00:00 +15°C° 0 mm 1 m/s 623 mmHg 36%
    01:00 +14°C° 0 mm 1 m/s 623 mmHg 38%
    02:00 +13°C° 0 mm 1 m/s 622 mmHg 40%
    03:00 +12°C° 0 mm 1 m/s 622 mmHg 43%
    04:00 +12°C° 0 mm 1 m/s 622 mmHg 45%
    05:00 +12°C° 0 mm 1 m/s 623 mmHg 46%
    06:00 +12°C° 0 mm 1 m/s 623 mmHg 46%
    07:00 +13°C° 0 mm 1 m/s 624 mmHg 47%
    08:00 +16°C° 0 mm 1 m/s 625 mmHg 40%
    09:00 +20°C° 0 mm 2 m/s 626 mmHg 32%
    10:00 +24°C° 0 mm 3 m/s 627 mmHg 25%
    11:00 +26°C° 0 mm 2 m/s 627 mmHg 23%
    12:00 +27°C° 0 mm 2 m/s 627 mmHg 21%
    13:00 +29°C° 0 mm 1 m/s 627 mmHg 19%
    14:00 +29°C° 0 mm 1 m/s 626 mmHg 19%
    15:00 +28°C° 0 mm 2 m/s 625 mmHg 19%
    16:00 +28°C° 0 mm 2 m/s 625 mmHg 19%
    17:00 +24°C° 0 mm 2 m/s 624 mmHg 24%
    18:00 +21°C° 0 mm 1 m/s 624 mmHg 29%
    19:00 +18°C° 0 mm 1 m/s 623 mmHg 35%
    20:00 +18°C° 0 mm 1 m/s 623 mmHg 36%
    21:00 +16°C° 0 mm 1 m/s 623 mmHg 37%
    22:00 +14°C° 0 mm 0 m/s 624 mmHg 38%
    23:00 +14°C° 0 mm 0 m/s 623 mmHg 38%

    1 Juillet, Lundi

    Heure Température Précipitation Vent Pression Humidité
    00:00 +15°C° 0 mm 1 m/s 623 mmHg 39%
    01:00 +14°C° 0 mm 1 m/s 623 mmHg 40%
    02:00 +14°C° 0 mm 1 m/s 622 mmHg 42%
    03:00 +13°C° 0 mm 1 m/s 622 mmHg 43%
    04:00 +12°C° 0 mm 1 m/s 622 mmHg 45%
    05:00 +13°C° 0 mm 1 m/s 623 mmHg 45%
    06:00 +13°C° 0 mm 1 m/s 623 mmHg 45%
    07:00 +13°C° 0 mm 1 m/s 623 mmHg 45%
    08:00 +17°C° 0 mm 2 m/s 624 mmHg 37%
    09:00 +21°C° 0 mm 2 m/s 626 mmHg 29%
    10:00 +25°C° 0 mm 3 m/s 627 mmHg 21%
    11:00 +26°C° 0 mm 3 m/s 626 mmHg 19%
    12:00 +27°C° 0 mm 3 m/s 626 mmHg 18%
    13:00 +28°C° 0 mm 3 m/s 625 mmHg 16%
    14:00 +28°C° 0 mm 3 m/s 625 mmHg 16%
    15:00 +28°C° 0 mm 2 m/s 624 mmHg 16%
    16:00 +28°C° 0 mm 2 m/s 624 mmHg 16%
    17:00 +25°C° 0 mm 2 m/s 623 mmHg 20%
    18:00 +21°C° 0 mm 1 m/s 623 mmHg 24%
    19:00 +18°C° 0 mm 1 m/s 622 mmHg 28%
    20:00 +18°C° 0 mm 1 m/s 623 mmHg 29%
    21:00 +16°C° 0 mm 1 m/s 623 mmHg 30%
    22:00 +15°C° 0 mm 1 m/s 623 mmHg 31%
    23:00 +15°C° 0 mm 1 m/s 623 mmHg 32%

    2 Juillet, Mardi

    Heure Température Précipitation Vent Pression Humidité
    00:00 +14°C° 0 mm 1 m/s 622 mmHg 34%
    01:00 +13°C° 0 mm 1 m/s 622 mmHg 35%
    02:00 +13°C° 0 mm 1 m/s 622 mmHg 36%
    03:00 +12°C° 0 mm 1 m/s 622 mmHg 37%
    04:00 +12°C° 0 mm 1 m/s 622 mmHg 39%
    05:00 +12°C° 0 mm 1 m/s 622 mmHg 39%
    06:00 +12°C° 0 mm 1 m/s 623 mmHg 39%
    07:00 +12°C° 0 mm 1 m/s 623 mmHg 39%
    08:00 +14°C° 0 mm 3 m/s 624 mmHg 33%
    09:00 +18°C° 0 mm 4 m/s 625 mmHg 28%
    10:00 +22°C° 0 mm 5 m/s 626 mmHg 22%
    11:00 +23°C° 0 mm 5 m/s 625 mmHg 20%
    12:00 +25°C° 0 mm 4 m/s 625 mmHg 18%
    13:00 +27°C° 0 mm 4 m/s 625 mmHg 16%
    14:00 +27°C° 0 mm 4 m/s 625 mmHg 17%
    15:00 +27°C° 0 mm 4 m/s 624 mmHg 17%
    16:00 +26°C° 0 mm 3 m/s 624 mmHg 17%
    17:00 +22°C° 0 mm 3 m/s 623 mmHg 22%
    18:00 +19°C° 0 mm 2 m/s 623 mmHg 28%
    19:00 +16°C° 0 mm 1 m/s 622 mmHg 33%
    20:00 +15°C° 0 mm 1 m/s 623 mmHg 34%
    21:00 +14°C° 0 mm 1 m/s 623 mmHg 35%
    22:00 +14°C° 0 mm 1 m/s 623 mmHg 36%
    23:00 +13°C° 0 mm 2 m/s 623 mmHg 38%
    Voir plus